AJ5TT Weather Reports


time (UTC)temp
C
wind
direction
speed
KPH
gust
KPH
rain 1hr
cm
rain 24hr
cm
rain mn
cm
humidity
%
barometer
mb
20260510180104 30 281 3.2 6.4 0.00 0.00 0.00 65 1014.3
20260510174553 30 279 6.4 16.1 0.00 0.00 0.00 68 1014.5
20260510173053 31 49 1.6 9.7 0.00 0.00 0.00 66 1014.6
20260510171559 30 329 4.8 14.5 0.00 0.00 0.00 66 1014.6
20260510170100 30 360 4.8 12.9 0.00 0.00 0.00 66 1014.9
20260510164559 30 335 3.2 14.5 0.00 0.00 0.00 69 1015.1
20260510163054 30 346 3.2 9.7 0.00 0.00 0.00 68 1015.0
20260510161554 30 61 4.8 17.7 0.00 0.00 0.00 70 1015.2
20260510160100 29 59 3.2 11.3 0.00 0.00 0.00 72 1015.3
20260510154603 29 5 1.6 3.2 0.00 0.00 0.00 73 1015.4
20260510153053 28 83 3.2 11.3 0.00 0.00 0.00 76 1015.5
20260510151554 28 26 1.6 4.8 0.00 0.00 0.00 78 1015.6
20260510150054 28 82 3.2 8.0 0.00 0.00 0.00 77 1015.6
20260510144554 26 40 1.6 9.7 0.00 0.00 0.00 83 1015.5
20260510143058 26 53 3.2 6.4 0.00 0.00 0.00 83 1015.5
20260510141553 26 32 4.8 11.3 0.00 0.00 0.00 84 1015.4
20260510140055 26 24 3.2 6.4 0.00 0.00 0.00 87 1015.2
20260510134555 26 87 3.2 8.0 0.00 0.00 0.00 87 1015.0
20260510133059 25 67 1.6 6.4 0.00 0.00 0.00 88 1014.9
20260510131604 25 58 1.6 4.8 0.00 0.00 0.00 89 1014.4
20260510130056 25 41 0.0 3.2 0.00 0.00 0.00 90 1014.0
20260510124610 24 86 0.0 4.8 0.00 0.00 0.00 91 1013.8
20260510123056 24 0 0.0 3.2 0.00 0.00 0.00 92 1013.6
20260510121554 24 0 0.0 3.2 0.00 0.00 0.00 92 1013.3
20260510120057 24 162 0.0 3.2 0.00 0.00 0.00 91 1013.1
20260510114605 24 168 0.0 4.8 0.00 0.00 0.00 91 1013.0
20260510113101 24 206 1.6 4.8 0.00 0.00 0.00 91 1012.7
20260510111610 24 181 1.6 6.4 0.00 0.00 0.00 91 1012.5
20260510110055 23 128 1.6 8.0 0.00 0.00 0.00 92 1012.3
20260510104606 23 205 1.6 6.4 0.00 0.00 0.00 92 1012.1
20260510103055 23 213 1.6 4.8 0.00 0.00 0.00 92 1012.0
20260510101555 23 196 1.6 6.4 0.00 0.00 0.00 92 1012.0
20260510100053 23 188 3.2 8.0 0.00 0.00 0.00 92 1012.0
20260510094553 23 117 4.8 14.5 0.00 0.00 0.00 92 1011.8
20260510093055 23 115 1.6 8.0 0.00 0.00 0.00 92 1012.0
20260510091559 23 159 3.2 9.7 0.00 0.00 0.00 92 1012.0
20260510090134 23 194 3.2 11.3 0.00 0.00 0.00 92 1012.0
20260510084559 23 174 3.2 6.4 0.00 0.00 0.00 92 1011.9
20260510083051 23 190 1.6 8.0 0.00 0.00 0.00 92 1011.8
20260510081552 23 175 1.6 6.4 0.00 0.00 0.00 92 1011.8
20260510080059 23 186 1.6 4.8 0.00 0.00 0.00 92 1011.8
20260510074556 23 134 1.6 8.0 0.00 0.00 0.00 92 1011.6
20260510073055 23 173 1.6 6.4 0.00 0.00 0.00 92 1011.6
20260510071553 23 150 1.6 6.4 0.00 0.00 0.00 91 1011.7
20260510064607 23 202 1.6 4.8 0.00 0.00 0.00 90 1011.7
20260510063055 23 159 1.6 8.0 0.00 0.00 0.00 90 1011.9
20260510061554 23 112 3.2 11.3 0.00 0.00 0.00 89 1012.1
20260510060053 23 107 0.0 6.4 0.00 0.00 0.00 89 1012.0
20260510054551 23 202 1.6 4.8 0.00 0.00 0.00 89 1012.0
20260510053053 24 0 1.6 8.0 0.00 0.00 0.00 89 1012.2
20260510051606 24 146 1.6 3.2 0.00 0.00 0.00 89 1012.2
20260510050057 24 303 1.6 6.4 0.00 0.00 0.00 89 1012.4
20260510044604 24 201 1.6 4.8 0.00 0.00 0.00 89 1012.5
20260510043053 25 66 0.0 4.8 0.00 0.00 0.00 89 1012.5
20260510041606 25 49 1.6 6.4 0.00 0.00 0.00 88 1012.9
20260510040058 25 84 1.6 4.8 0.00 0.00 0.00 88 1012.7
20260510034600 25 82 1.6 3.2 0.00 0.00 0.00 88 1012.4
20260510033051 25 163 3.2 11.3 0.00 0.00 0.00 88 1012.6
20260510031603 25 24 1.6 14.5 0.00 0.00 0.00 87 1012.8
20260510030103 25 53 3.2 16.1 0.00 0.00 0.00 87 1012.5
20260510024555 25 35 1.6 9.7 0.00 0.00 0.00 86 1012.2
20260510023053 26 19 1.6 6.4 0.00 0.00 0.00 82 1011.9
20260510021557 25 9 1.6 9.7 0.00 0.00 0.00 81 1011.8
20260510020056 25 183 0.0 4.8 0.00 0.00 0.00 82 1011.2
20260510014551 26 131 1.6 4.8 0.00 0.00 0.00 81 1010.7
20260510013058 26 175 1.6 3.2 0.00 0.00 0.00 80 1010.4
20260510011554 26 335 1.6 3.2 0.00 0.00 0.00 79 1010.0
20260510010056 27 161 1.6 9.7 0.00 0.00 0.00 76 1009.3
20260510004556 27 146 1.6 8.0 0.00 0.00 0.00 72 1009.7
20260510003057 28 194 3.2 6.4 0.00 0.00 0.00 65 1009.6
20260510001554 29 135 3.2 14.5 0.00 0.00 0.00 57 1009.6
20260510000106 30 105 3.2 9.7 0.00 0.00 0.00 54 1009.2
20260509234604 31 257 1.6 9.7 0.00 0.00 0.00 53 1009.1
20260509233057 31 175 4.8 11.3 0.00 0.00 0.00 51 1008.9
20260509231610 32 168 4.8 9.7 0.00 0.00 0.00 52 1009.0
20260509230106 32 205 3.2 11.3 0.00 0.00 0.00 52 1008.7
20260509224556 33 238 1.6 4.8 0.00 0.00 0.00 51 1008.7
20260509223052 32 144 1.6 8.0 0.00 0.00 0.00 50 1008.7
20260509221557 32 271 4.8 9.7 0.00 0.00 0.00 52 1008.5
20260509220056 32 45 1.6 6.4 0.00 0.00 0.00 54 1008.5
20260509214554 32 193 3.2 6.4 0.00 0.00 0.00 57 1008.5
20260509213054 32 265 1.6 4.8 0.00 0.00 0.00 58 1008.5
20260509211601 31 5 1.6 6.4 0.00 0.00 0.00 60 1008.5
20260509210107 31 266 4.8 8.0 0.00 0.00 0.00 57 1008.6
20260509204557 32 104 1.6 9.7 0.00 0.00 0.00 58 1008.8
20260509203053 31 230 1.6 8.0 0.00 0.00 0.00 60 1008.9
20260509201600 31 217 3.2 8.0 0.00 0.00 0.00 61 1009.1
20260509200103 31 242 4.8 9.7 0.00 0.00 0.00 63 1009.2
20260509194556 30 223 4.8 9.7 0.00 0.00 0.00 60 1009.2
20260509193056 30 136 1.6 8.0 0.00 0.00 0.00 61 1009.5
20260509191557 31 5 3.2 6.4 0.00 0.00 0.00 65 1009.6
20260509190108 30 202 1.6 6.4 0.00 0.00 0.00 64 1009.5
20260509184605 29 269 0.0 4.8 0.00 0.00 0.00 69 1009.8
20260509183057 29 346 3.2 8.0 0.00 0.00 0.00 71 1010.2
20260509181607 28 37 3.2 9.7 0.00 0.00 0.00 71 1010.4